Hourly Data Report for May 25, 2012

All times are specified in Local Standard Time (LST). Add 1 hour to adjust for Daylight Saving Time where and when it is observed.

PENTICTON A
BRITISH COLUMBIA

49°27'45.000" N
119°36'08.000" W
344.40 m
1126146
71889
YYF

Related Data

No related data is available for this station

Download Data

Hourly Data (May 2012)
Hourly Data Report for May 25, 2012
Temp Definition
°C
Dew Point Temp Definition
°C
Rel Hum Definition
%
Wind Dir Definition
10's deg

Wind Spd Definition
km/h
Visibility Definition
km
Stn Press Definition
kPa
Hmdx Definition


Wind Chill Definition


Weather Definition


TIME
00:00 Legend Double Dagger 11.4 7.5 77 32 8 10.0 97.23     LegendNANA
01:00 Legend Double Dagger 11.6 7.6 76 2 10 10.0 97.25     Cloudy
02:00 Legend Double Dagger 11.5 8.0 79 35 8 10.0 97.33     Rain Showers
03:00 Legend Double Dagger 11.1 8.0 81 33 6 10.0 97.34     LegendNANA
04:00 Legend Double Dagger 10.2 7.6 84 35 9 10.0 97.34     Mostly Cloudy
05:00 Legend Double Dagger 10.2 7.5 83 1 9 10.0 97.37     LegendNANA
06:00 Legend Double Dagger 12.1 6.6 69 34 8 10.0 97.40     LegendNANA
07:00 Legend Double Dagger 13.8 7.6 66 35 13 10.0 97.41     Mainly Clear
08:00 Legend Double Dagger 14.4 6.8 60 35 10 10.0 97.38     LegendNANA
09:00 Legend Double Dagger 16.0 6.5 53 3 10 10.0 97.35     LegendNANA
10:00 Legend Double Dagger 16.0 5.7 50   0 10.0 97.28     Mostly Cloudy
11:00 Legend Double Dagger 17.6 4.3 41 3 4 10.0 97.21     LegendNANA
12:00 Legend Double Dagger 18.8 2.7 34 6 5 10.0 97.15     LegendNANA
13:00 Legend Double Dagger 19.0 2.9 34 34 6 10.0 97.13     Mostly Cloudy
14:00 Legend Double Dagger 20.2 1.3 28 31 11 10.0 97.11     LegendNANA
15:00 Legend Double Dagger 20.3 0.8 27 35 10 10.0 97.07     LegendNANA
16:00 Legend Double Dagger 21.0 -2.7 20 29 5 10.0 97.08     Mostly Cloudy
17:00 Legend Double Dagger 20.2 1.3 28 5 5 10.0 97.08     LegendNANA
18:00 Legend Double Dagger 19.2 0.4 28 18 6 10.0 97.08     LegendNANA
19:00 Legend Double Dagger 18.8 -0.5 27 6 4 10.0 97.14     Mostly Cloudy
20:00 Legend Double Dagger 15.7 1.1 37   0 10.0 97.18     LegendNANA
21:00 Legend Double Dagger 14.4 2.7 45   0 10.0 97.23     LegendNANA
22:00 Legend Double Dagger 12.9 1.6 46   0 10.0 97.26     Mostly Cloudy
23:00 Legend Double Dagger 9.9 1.3 55   0 10.0 97.30     LegendNANA

Notes on Data Quality.

Legend

  • E = Estimated
  • M = Missing
  • NA = Not Available
  • ‡ = Partner data that is not subject to review by the National Climate Archives
Date modified: